Regional Weather Roundup
Issued by NWS Albany, NY

Home | Current Version | Previous Version | Graphics & Text | Print | Product List | Glossary Off
Versions: 1 2 3 4 5 6 7 8 9 10 11 12 13 14 15 16 17 18 19 20 21 22 23 24 25 26 27 28 29 30 31 32 33 34 35 36 37 38 39 40 41 42 43 44 45 46 47 48 49 50

000
ASUS41 KALY 260010
RWRALY

NEW YORK STATE HOURLY WEATHER ROUNDUP
NATIONAL WEATHER SERVICE ALBANY NY
800 PM EDT FRI JUL 25 2014

NOTE: "FAIR" INDICATES FEW OR NO CLOUDS BELOW 12,000 FEET WITH NO
SIGNIFICANT WEATHER AND/OR NO OBSTRUCTIONS TO VISIBILITY.

NYZ032-033-038>043-046>054-057>066-NYZ062>081-260100-
EAST


CITY           SKY/WX    TMP DP  RH WIND       PRES   REMARKS
ALBANY         PTCLDY    75  59  57 CALM      29.95R
GLENS FALLS    CLEAR     73  53  49 SW6       29.94R
POUGHKEEPSIE   CLEAR     74  59  59 S3        29.96S
NEWBURGH       CLEAR     75  59  57 CALM      29.99S
MONTGOMERY     CLEAR     72  58  61 SW5       29.98R
WHITE PLAINS   CLEAR     70  59  68 CALM      29.99R
ISLIP          PTCLDY    74  59  59 SW8       29.98R
NEW YORK CITY  MOCLDY    78  59  51 SE10G16   29.98R
CENTRAL PARK     N/A     76  56  49 SW3       30.01
$$

NYZ005>009-017-018-044>046-055-056-260100-
CENTRAL


CITY           SKY/WX    TMP DP  RH WIND       PRES   REMARKS
FULTON         CLEAR     69  57  65 N3        29.97F
SYRACUSE       PTCLDY    74  54  49 SW6       29.97R
ROME           CLEAR     72  53  51 W5        29.99R
ELMIRA         PTCLDY    70  61  73 CALM      29.98S
BINGHAMTON     CLEAR     70  54  56 CALM      30.02R
MONTICELLO     CLEAR     70  57  64 SW5       30.03R
$$

NYZ026>034-041>043-260100-
NORTH


CITY           SKY/WX    TMP DP  RH WIND       PRES   REMARKS
WATERTOWN      CLEAR     68  54  60 S5        29.95F
FORT DRUM      NOT AVBL
MASSENA        CLEAR     69  54  58 SW12      29.91R
SARANAC LAKE   CLEAR     65  52  62 W9        29.97R
PLATTSBURGH    CLEAR     73  57  57 CALM      29.89S
$$

NYZ001>004-010>016-019>021-260100-
WEST


CITY           SKY/WX    TMP DP  RH WIND       PRES   REMARKS
NIAGARA FALLS  MOCLDY    69  54  58 SW10      29.97S
BUFFALO        MOCLDY    70  52  52 SW14      29.98F
DUNKIRK        MOCLDY    69  55  60 SW5       30.00F
JAMESTOWN      MOCLDY    64  54  68 N6        30.02F
WELLSVILLE     MOCLDY    68  50  52 W5        30.04S
ROCHESTER      MOCLDY    72  58  61 W5        29.97F
PENN YAN       PTCLDY    72  58  61 CALM      29.98F
$$

             KEY
       WCI = WIND CHILL INDEX
       VSB = VISIBILITY
       HX  = HEAT INDEX
$$


USA.gov is the U.S. government's official web portal to all federal, state and local government web resources and services.